Regional Weather Roundup
Issued by NWS

Home | Current Version | Previous Version | Graphics & Text | Print | Product List | Glossary On
Versions: 1 2 3 4 5 6 7 8 9 10 11 12 13 14 15 16 17 18 19 20 21 22 23 24 25 26 27 28 29 30 31 32 33 34 35 36 37 38 39 40 41 42 43 44 45 46 47 48 49 50
000
ASUS43 KMPX 310910
RWRMN
WEATHER ROUNDUP FOR MINNESOTA
NATIONAL WEATHER SERVICE TWIN CITIES/CHANHASSEN MN
300 AM CST SAT JAN 31 2015


NOTE: "FAIR" INDICATES FEW OR NO CLOUDS BELOW 12,000 FEET WITH NO
SIGNIFICANT WEATHER AND/OR OBSTRUCTIONS TO VISIBILITY. N/A MEANS
CURRENT SKY AND/OR WEATHER CONDITIONS ARE NOT AVAILABLE.

MNZ060>063-068>070-311000-
   Twin Cities Metro

CITY           SKY/WX    TMP DP  RH WIND       PRES   REMARKS
TWIN CITIES    MOCLDY    20  16  84 E3        30.13S
ST PAUL        CLOUDY    23  19  85 S5        30.15S WCI  17
CRYSTAL        CLOUDY    22  19  89 NE3       30.12R
BLAINE         CLOUDY    28  25  86 CALM      30.12S
LAKEVILLE      CLEAR     25  21  86 SW6       30.11F WCI  18
EDEN PRAIRIE   CLEAR     22  19  89 SW5       30.11F WCI  16
SOUTH ST PAUL  MOCLDY    19  16  88 CALM      30.13F
LAKE ELMO      CLOUDY    27  23  86 CALM      30.13F
$$
MNZ001>005-007-008-013>017-022>024-027-028-311000-
   Northwest Minnesota

CITY           SKY/WX    TMP DP  RH WIND       PRES   REMARKS
BEMIDJI        CLOUDY    20  17  88 NW10      30.14R WCI   9
HALLOCK        CLEAR      7   1  78 N16       30.31R WCI -11
ROSEAU         FAIR       9   3  78 N18G24    30.23R WCI -10
WARROAD        CLEAR      9   3  78 NW10      30.22R WCI  -6
THIEF RVR FALL CLOUDY    16  10  79 N14       30.20F WCI   1
CROOKSTON      CLOUDY    16  12  86 N18       30.24R WCI  -1
FOSSTON        CLOUDY    16  12  86 N15       30.18R WCI   1
DETROIT LAKES  CLOUDY    21  19  93 N15       30.16R WCI   8
MOORHEAD       CLOUDY    19  18  93 N14       30.23R WCI   6
PARK RAPIDS    CLOUDY    23  18  81 N15       30.10R WCI  10
MAHNOMEN       CLOUDY    18  16  90 N13G18    30.17R WCI   5
$$
MNZ006-009>011-018-025>026-311000-
   North Central Minnesota

CITY           SKY/WX    TMP DP  RH WIND       PRES   REMARKS
BAUDETTE       CLOUDY    13   7  77 NW15      30.17R WCI  -3
FLAG ISLAND    CLEAR      3   0  85 NW20      30.21R WCI -18
INTL FALLS     CLOUDY    14   9  80 N13       30.13R WCI   0
WASKISH        CLOUDY    16  12  86 N9        30.17R WCI   4
BIG FORK       CLOUDY    19  16  86 N6        30.11R WCI  11
LONGVILLE      CLOUDY    23  19  86 NW6       30.11R WCI  16
GRAND RAPIDS   CLOUDY    21  16  79 NW10      30.08R WCI  10
CRANE LAKE     CLOUDY    16  12  86 N7        30.12S WCI   6
ORR            CLOUDY    16  10  79 NW7       30.06S WCI   6
COOK           CLOUDY    18  12  79 NW3       30.08S
WALKER         CLOUDY    22  17  84 N9        30.11S WCI  11
$$
MNZ012-019>021-037-311000-
   Northeast Minnesota

CITY           SKY/WX    TMP DP  RH WIND       PRES   REMARKS
DULUTH         CLOUDY    20  13  74 W6        30.06S WCI  12
ELY            CLOUDY    16  12  86 W7        30.06S WCI   6
HIBBING        CLOUDY    18  10  71 CALM      30.07S
EVELETH        CLOUDY    18  10  73 CALM      30.08S
DULUTH HARBOR  CLOUDY    21  14  73 CALM      30.13F
TWO HARBORS    CLOUDY    21  12  68 CALM      30.07S
SILVER BAY     CLOUDY    18  10  73 CALM      30.06F
GRAND MARAIS     N/A     17  11  77 NW3       30.10S
G MARAIS ARPRT CLOUDY    12   9  85 W8        30.00S WCI   1
$$
MNZ029>031-032-039>041-046>048-054>057-064-311000-
   West Central Minnesota

CITY           SKY/WX    TMP DP  RH WIND       PRES   REMARKS
FERGUS FALLS   CLOUDY    21  18  86 NW14G21   30.21R WCI   8
WHEATON        CLOUDY    23  19  86 N13       30.22R WCI  11
MORRIS         CLOUDY    25  21  86 NW12      30.16R FOG     WCI  14
ALEXANDRIA     CLOUDY    23  20  88 N10       30.13R WCI  12
ELBOW LAKE     CLOUDY    23  21  93 NW13      30.16R WCI  11
WADENA         CLOUDY    21  21 100 NW12      30.12R WCI   9
GLENWOOD       MOCLDY    21  19  93 NW7       30.14R WCI  13
APPLETON       MOCLDY    27  23  86 N12       30.17R WCI  16
BENSON         CLEAR     21  19  93 N9        30.15R WCI  11
ORTONVILLE     CLOUDY    27  23  86 N13       30.17R WCI  16
MADISON        MOCLDY    28  27  93 N17       30.17R WCI  16
WILLMAR        FAIR      21  19  93 NW9       30.13S WCI  11
$$
MNZ033>034-036-042>043-049>051-058-059-311000-
   Central Minnesota

CITY           SKY/WX    TMP DP  RH WIND       PRES   REMARKS
ST CLOUD       CLOUDY    18  15  88 NW3       30.12R
SAUK CENTRE    FAIR      20  19  95 NW7       30.13R WCI  11
PAYNESVILLE    CLEAR     19  19 100 W5        30.13R WCI  12
AITKIN         CLOUDY    27  19  74 CALM      30.08S
PINE RIVER     CLOUDY    25  19  80 N9        30.13S WCI  15
BRAINERD       CLOUDY    24  19  81 NW6       30.11R WCI  17
STAPLES        CLOUDY    21  19  93 NW7       30.12R WCI  13
LONG PRAIRIE   MOCLDY    21  19  93 NW8       30.11R WCI  12
LITTLE FALLS   CLOUDY    21  18  86 CALM      30.12R
LITCHFIELD     CLEAR     27  27 100 NW6       30.12R WCI  20
BUFFALO        CLEAR     18  16  92 CALM      30.13S
MAPLE LAKE     CLEAR     17  16  96 CALM      30.13R
$$
MNZ037-044-045-052-053-311000-
   East Central Minnesota

CITY           SKY/WX    TMP DP  RH WIND       PRES   REMARKS
PRINCETON      CLOUDY    25  21  86 CALM      30.12R
MORA           CLOUDY    23  18  80 CALM      30.13R
CAMBRIDGE      CLOUDY    28  19  69 CALM      30.10R
RUSH CITY      CLOUDY    25  20  83 CALM      30.11S
MOOSE LAKE     CLOUDY    21  16  79 CALM      30.09R
HINCKLEY       CLOUDY    23  18  80 CALM      30.11S
CLOQUET        CLOUDY    19  12  73 CALM      30.08S
MCGREGOR       CLOUDY    25  19  80 CALM      30.10R
$$
MNZ071>073-080-081-089-090-097-098-311000-
   Southwest Minnesota

CITY           SKY/WX    TMP DP  RH WIND       PRES   REMARKS
MONTEVIDEO     CLEAR     25  23  93 N7        30.16R WCI  17
GRANITE FALLS  CLEAR     25  23  92 NW6       30.15S WCI  18
CANBY          PTCLDY    27  24  90 NW10      30.17R WCI  17
MARSHALL       CLEAR     28  21  74 N12       30.14S WCI  18
REDWOOD FALLS  CLEAR     25  23  92 NW8       30.12S WCI  16
OLIVIA         CLEAR     23  23 100 NW7       30.12S WCI  15
PIPESTONE      PTCLDY    25  23  93 SE3       30.10S
WINDOM         PTCLDY    25  23  93 W5        30.12S WCI  19
WORTHINGTON    PTCLDY    27  23  86 SW8       30.11F WCI  18
JACKSON        PTCLDY    30  25  80 SW7       30.12S WCI  23
TRACY          PTCLDY    29  26  88 NW9       30.13S WCI  21
SLAYTON        PTCLDY    25  23  91 CALM      30.12R
$$
MNZ065>067-074>077-082>085-091>093-311000-
   South Central Minnesota

CITY           SKY/WX    TMP DP  RH WIND       PRES   REMARKS
MANKATO        CLEAR     25  19  80 SW5       30.13S WCI  19
NEW ULM        PTCLDY    21  19  93 CALM      30.12F
ST JAMES       PTCLDY    27  23  86 SW6       30.14S WCI  20
FAIRMONT       PTCLDY    27  21  80 W7        30.11F WCI  19
GLENCOE        CLEAR     22  21  96 CALM      30.11F
FARIBAULT      CLEAR     23  21  93 S3        30.13F
OWATONNA       CLEAR     23  19  86 SW5       30.13S WCI  17
WASECA         CLEAR     23  21  93 SW5       30.14S WCI  17
ALBERT LEA     FAIR      27  23  86 SW7       30.12F WCI  19
$$
MNZ078>079-086>088-094>096-311000-
   Southeast Minnesota

CITY           SKY/WX    TMP DP  RH WIND       PRES   REMARKS
ROCHESTER      CLEAR     20  16  84 S6        30.12F WCI  12
RED WING       CLOUDY    23  18  80 CALM      30.14F
STANTON        CLEAR     26  21  83 S5        30.12S WCI  20
DODGE CENTER   PTCLDY    21  19  93 SW9       30.11F WCI  11
WINONA         CLEAR     27  18  69 W5        30.17F WCI  21
AUSTIN         CLEAR     19  18  93 S5        30.13F WCI  13
PRESTON        CLEAR     22  16  78 SW13      30.13F WCI  10
$$
ABBREVIATIONS USED IN REMARKS
   TC - TEMPERATURES IN CELSIUS
  WCI - WIND CHILL INDEX
   HX - HEAT INDEX
  VSB - VISIBILITY
$$


USA.gov is the U.S. government's official web portal to all federal, state and local government web resources and services.